Lid_Strength_Index
4 5 4 4 5 5 5 4 4 1 1 1 2 1 1 1 0 -0 -1 -1 -1 -1 -1 -1 -0 -1 -0 -0 -0 0 0 1 -0 1 1 1 -0 -0 -0 -1 -0 -0 -1
5 5 5 4 5 5 5 4 4 3 1 1 1 1 1 0 0 -0 -1 -1 -1 -1 -1 -0 -0 -0 -0 0 0 0 1 1 0 2 2 4 2 1 0 -0 -0 0 0
5 5 6 4 3 5 4 3 3 4 1 1 1 1 1 1 1 1 0 -0 -1 -1 -1 -1 -1 -0 -0 0 0 0 1 2 1 0 2 4 4 2 1 1 0 0 1
5 5 5 4 5 5 3 3 3 2 1 1 1 2 2 3 2 1 0 -0 -1 -1 -1 -1 -1 -0 -0 0 -0 -0 0 1 2 1 1 0 1 4 5 1 0 0 2
5 5 4 4 5 3 3 3 3 3 1 1 1 2 2 2 1 1 1 0 -0 -1 -1 -1 -1 -0 -0 -0 -0 0 0 0 1 1 1 1 1 1 3 5 3 1 3
5 4 4 6 6 2 2 2 3 3 2 2 1 2 2 2 2 2 2 1 1 0 -0 -1 -1 -1 -0 -0 -0 -0 -0 0 1 1 1 2 3 3 3 4 4 3 3
5 5 5 6 4 3 3 2 2 3 2 2 3 3 3 2 2 2 1 2 1 1 0 -0 0 0 -0 -1 -0 -0 0 0 1 1 1 1 1 1 2 3 4 4 3
5 6 7 4 4 3 3 3 2 2 2 2 3 3 3 3 3 1 1 1 1 1 0 0 -0 -0 -0 -0 -0 -0 0 -0 0 1 1 1 1 0 1 2 3 4 4
6 6 7 4 4 4 3 3 2 2 2 2 3 3 2 2 3 3 2 1 0 1 1 1 0 -0 -0 -0 0 0 1 1 1 1 1 0 0 -0 0 1 1 3 6
7 7 6 4 3 3 2 2 2 2 2 1 2 2 2 2 2 2 2 2 1 0 1 0 0 0 0 0 1 1 1 1 1 1 1 1 1 2 1 2 2 2 3
8 7 5 4 3 3 2 2 2 2 2 1 1 1 1 1 1 1 2 2 2 1 1 1 1 1 1 1 1 1 1 1 1 2 1 2 2 2 3 3 2 2 2
8 6 6 4 4 3 3 2 2 2 2 1 1 1 1 1 1 1 1 2 2 1 1 1 1 1 1 1 1 1 1 1 2 3 2 3 4 3 3 3 3 3 3
9 6 5 5 4 4 3 3 2 2 2 2 2 2 2 2 3 2 2 3 3 2 2 1 2 2 2 1 1 2 2 2 3 3 4 4 4 4 4 4 4 4 4
9 8 7 5 5 4 4 3 2 2 2 2 2 2 2 3 3 3 3 3 3 2 2 1 2 2 2 2 3 3 3 4 5 5 5 5 5 5 5 5 5 5 4
8 8 7 6 5 4 4 4 3 2 2 2 2 3 3 3 3 2 3 3 3 3 3 4 5 5 5 5 5 5 5 6 6 6 6 6 7 7 6 5 5 5 5
7 7 7 7 5 5 5 5 5 3 2 3 4 4 4 4 3 3 3 4 5 5 5 5 6 7 7 7 6 6 6 6 6 7 7 7 8 7 6 7 7 7 6
7 6 7 7 6 6 5 5 5 5 4 5 5 5 5 5 5 5 5 5 6 6 5 6 5 6 7 7 7 7 7 9 8 7 7 8 8 7 7 8 8 8 8
5 6 5 6 6 6 6 6 6 5 5 6 6 6 6 6 6 6 6 6 6 6 6 6 6 6 7 7 8 8 7 7 7 7 7 7 7 7 7 7 8 8 8
6 5 5 5 5 6 6 6 6 6 6 6 6 6 6 6 6 7 7 7 8 7 7 7 6 6 7 8 8 8 7 7 8 8 7 7 7 7 8 8 8 8 8
5 5 5 5 5 6 5 6 7 6 7 6 6 6 6 6 6 7 7 8 7 8 8 9 7 7 6 7 8 8 7 8 8 8 7 8 7 8 8 8 8 9 9
6 5 5 5 5 5 5 5 5 6 6 6 6 6 6 6 6 6 7 7 7 8 8 8 8 7 7 7 7 8 7 7 7 7 7 7 8 8 8 7 8 9 11
6 6 6 6 5 5 5 6 6 6 5 6 6 6 6 7 6 6 7 7 7 7 8 8 8 8 8 8 8 7 7 7 7 7 7 8 9 9 8 8 8 9 10
6 6 6 6 6 6 5 6 7 6 6 6 6 6 6 6 6 6 7 7 7 7 7 8 8 8 8 7 8 7 7 7 7 7 7 9 9 9 9 8 8 9 10
6 6 6 6 6 6 6 6 6 6 6 6 6 6 6 6 6 6 6 6 7 7 8 9 9 8 8 8 7 7 7 6 7 7 7 8 8 9 9 9 10 11 11
7 7 7 7 7 7 7 6 6 6 6 6 6 6 6 6 6 6 6 6 5 6 7 7 8 8 8 8 7 7 8 7 7 8 9 10 11 11 12 11 11 12 12
8 8 8 8 8 8 8 7 7 7 7 7 7 7 7 6 7 7 7 7 7 7 7 7 7 8 8 8 8 8 8 9 9 10 10 10 11 12 12 12 12 12 12